Regional Weather Roundup
Issued by NWS

Home | Current Version | Previous Version | Graphics & Text | Print | Product List | Glossary On
Versions: 1 2 3 4 5 6 7 8 9 10 11 12 13 14 15 16 17 18 19 20 21 22 23 24 25 26 27 28 29 30 31 32 33 34 35 36 37 38 39 40 41 42 43 44 45 46 47 48 49 50
000
ASUS44 KMEG 271800
RWRTN
TENNESSEE HOURLY STATE WEATHER ROUNDUP
NATIONAL WEATHER SERVICE MEMPHIS TN
100 PM CDT WED AUG 27 2014

TNZ002-004-019-021-049-052-054-088>092-271900-
WEST TENNESSEE

CITY           SKY/WX    TMP DP  RH WIND       PRES   REMARKS
MEMPHIS INTL   PTSUNNY   91  65  41 E8        30.08F HX  93
NWS MEMPHIS      N/A     87 N/A N/A MISG        N/A
JACKSON        PTSUNNY   88  69  53 VRB3      30.10F HX  92
DYERSBURG      FAIR      88  70  55 SE5       30.09F HX  92
PARIS          MOSUNNY   90  72  55 CALM      30.10F HX  96
$$

TNZ008-025-027-028-033-062-065-066-271900-
NORTH MIDDLE TENNESSEE

CITY           SKY/WX    TMP DP  RH WIND       PRES   REMARKS
NASHVILLE      PTSUNNY   90  69  50 E10       30.10F HX  94
CLARKSVILLE    PTSUNNY   89  72  56 NE9       30.08F HX  96
COOKEVILLE     MOSUNNY   90  72  55 N5        30.11F HX  96
CROSSVILLE     MOSUNNY   82  61  48 VRB3      30.16F
$$

TNZ061-075-076-078-094-096-097-271900-
SOUTH MIDDLE TENNESSEE

CITY           SKY/WX    TMP DP  RH WIND       PRES   REMARKS
SHELBYVILLE    MOSUNNY   88  72  58 VRB3      30.11F HX  94
$$

TNZ017-018-042-046-047-271900-
NORTHEAST TENNESSEE

CITY           SKY/WX    TMP DP  RH WIND       PRES   REMARKS
TRI CITIES     MOSUNNY   83  59  44 N7        30.13F
$$

TNZ012-013-036-069-073-074-271900-
CENTRAL EAST TENNESSEE

CITY           SKY/WX    TMP DP  RH WIND       PRES   REMARKS
KNOXVILLE      MOSUNNY   84  64  50 NE8       30.10F
OAK RIDGE      SUNNY     85  64  49 CALM      30.12F
$$

TNZ083-085-099-271900-
SOUTHEAST TENNESSEE

CITY           SKY/WX    TMP DP  RH WIND       PRES   REMARKS
CHATTANOOGA    MOSUNNY   87  64  46 CALM      30.10F
$$

SKY/WX REPORTED AS FAIR MEANS FEW OR NO CLOUDS BELOW
12 THOUSAND FEET.



USA.gov is the U.S. government's official web portal to all federal, state and local government web resources and services.